Tracking 35237 objects as of 5-Sep-2026
HD Live streaming from Space Station
objects crossing your sky now

FREGAT DEB


FREGAT DEB is no longer on orbit


NORAD ID: 45850
Int'l Code: 2011-037CL
Launch date: July 18, 2011
Source: Commonwealth of Independent States (former USSR) (CIS)
Launch site: TYURATAM MISSILE AND SPACE COMPLEX (TTMTR)
Decay date: 2023-04-13

Note: This is SATELLITE DEBRIS
Your satellite tracking list
Your tracking list is empty




NASA's NSSDC Master Catalog

Two Line Element Set (TLE):
1 45850U 11037CL  23095.75207835  .08151044  00000-0  54789+0 0  9995
2 45850  51.1090 293.2755 0620063 164.7175 197.3450 14.13258856124976
Source of the keplerian elements: AFSPC